Hazen, ND

10:48 AM CDT on August 20, 2017 (GMT -0500)
Mercer County Regional

Weather History for KHZE - April, 2014

Change the Weather History Date:

Sunday, April 6, 2014

  Actual Average (KN60) Record (KN60)
Temperature  
Mean Temperature 38 °F -  
Max Temperature 51 °F 44 °F 72 °F (2004)
Min Temperature 24 °F 24 °F 6 °F (2007)
Degree Days  
Heating Degree Days 28    
Moisture  
Dew Point 30 °F    
Average Humidity 77    
Maximum Humidity 100    
Minimum Humidity 41    
Precipitation  
Precipitation 0.00 in - - ()
Sea Level Pressure  
Sea Level Pressure 29.79 in    
Wind  
Wind Speed 3 mph (WSW)    
Max Wind Speed 15 mph    
Max Gust Speed 18 mph    
Visibility 9 miles    
Events      
Averages and records for this station are not official NWS values.
T = Trace of Precipitation, MM = Missing Value Source: NWS Daily Summary

Daily Weather History Graph

Daily Weather History Graph

Search for Another Location

Airport or City:

Trip Planner

Search our weather history database for the weather conditions in past years. The results will help you decide how hot, cold, wet, or windy it might be!

Date:

Astronomy

Apr. 06, 2014 Rise Set
Actual Time 7:15 AM CDT 8:22 PM CDT
Civil Twilight 6:43 AM CDT 8:54 PM CDT
Nautical Twilight 6:06 AM CDT 9:32 PM CDT
Astronomical Twilight 5:26 AM CDT 10:12 PM CDT
Moon 12:05 PM CDT (4/6) 2:33 AM CDT (4/6)
Length of Visible Light 14h 10m
Length of Day
13h 07m
Waxing Crescent, 44% of the Moon is Illuminated
Apr 6
Waxing Crescent
Apr 7
First Quarter
Apr 15
Full
Apr 22
Last Quarter
Apr 29
New

Hourly Weather History & Observations

Time (CDT) Temp. Windchill Dew Point Humidity Pressure Visibility Wind Dir Wind Speed Gust Speed Precip Events Conditions
12:15 AM 26.6 °F - 26.6 °F 100% 29.86 in 10.0 mi North - - N/A   Clear
12:35 AM 26.6 °F - 24.8 °F 93% 29.86 in 10.0 mi Calm Calm - N/A   Partly Cloudy
12:55 AM 26.6 °F - 24.8 °F 93% 29.85 in 10.0 mi Calm Calm - N/A   Clear
1:15 AM 28.4 °F - 26.6 °F 93% 29.85 in 10.0 mi Calm Calm - N/A   Clear
1:35 AM 26.6 °F - 26.6 °F 100% 29.85 in 9.0 mi Calm Calm - N/A   Clear
1:55 AM 26.6 °F - 24.8 °F 93% 29.84 in 10.0 mi Calm Calm - N/A   Clear
2:15 AM 26.6 °F - 24.8 °F 93% 29.84 in 10.0 mi Calm Calm - N/A   Clear
2:35 AM 26.6 °F 22.6 °F 26.6 °F 100% 29.83 in 10.0 mi ENE 3.5 mph - N/A   Clear
2:55 AM 30.2 °F - 26.6 °F 86% 29.82 in 10.0 mi Calm Calm - N/A   Clear
3:15 AM 32.0 °F - 28.4 °F 87% 29.82 in 10.0 mi Calm Calm - N/A   Clear
3:35 AM 30.2 °F - 28.4 °F 93% 29.82 in 10.0 mi Calm Calm - N/A   Clear
3:55 AM 30.2 °F - 26.6 °F 86% 29.81 in 10.0 mi Calm Calm - N/A   Clear
4:15 AM 28.4 °F - 26.6 °F 93% 29.81 in 10.0 mi Calm Calm - N/A   Clear
4:35 AM 28.4 °F - 26.6 °F 93% 29.80 in 10.0 mi Calm Calm - N/A   Mostly Cloudy
4:55 AM 26.6 °F - 26.6 °F 100% 29.80 in 6.0 mi Calm Calm - N/A   Overcast
5:15 AM 26.6 °F - 24.8 °F 93% 29.79 in 5.0 mi Calm Calm - N/A   Overcast
5:35 AM 26.6 °F - 24.8 °F 93% 29.79 in 5.0 mi Calm Calm - N/A   Overcast
5:55 AM 26.6 °F - 26.6 °F 100% 29.79 in 7.0 mi Calm Calm - N/A   Overcast
6:15 AM 24.8 °F - 24.8 °F 100% 29.78 in 7.0 mi Calm Calm - N/A   Overcast
6:35 AM 24.8 °F - 24.8 °F 100% 29.78 in 5.0 mi Calm Calm - N/A   Mostly Cloudy
6:55 AM 24.8 °F - 24.8 °F 100% 29.79 in 5.0 mi Calm Calm - N/A   Scattered Clouds
7:15 AM 24.8 °F 20.5 °F 24.8 °F 100% 29.78 in 5.0 mi SSW 3.5 mph - N/A   Clear
7:35 AM 24.8 °F - 24.8 °F 100% 29.78 in 7.0 mi Calm Calm - N/A   Scattered Clouds
7:55 AM 24.8 °F - 24.8 °F 100% 29.79 in 8.0 mi Calm Calm - N/A   Mostly Cloudy
8:15 AM 28.4 °F - 26.6 °F 93% 29.79 in 9.0 mi Calm Calm - N/A   Mostly Cloudy
8:35 AM 30.2 °F 26.7 °F 28.4 °F 93% 29.79 in 10.0 mi SW 3.5 mph - N/A   Scattered Clouds
8:55 AM 30.2 °F 26.7 °F 28.4 °F 93% 29.78 in 10.0 mi SW 3.5 mph - N/A   Clear
9:15 AM 32.0 °F 28.7 °F 30.2 °F 93% 29.78 in 10.0 mi West 3.5 mph - N/A   Partly Cloudy
9:35 AM 33.8 °F 29.6 °F 32.0 °F 93% 29.78 in 10.0 mi West 4.6 mph - N/A   Partly Cloudy
9:55 AM 35.6 °F 30.7 °F 32.0 °F 87% 29.77 in 10.0 mi SW 5.8 mph - N/A   Clear
10:15 AM 37.4 °F 31.4 °F 32.0 °F 81% 29.77 in 10.0 mi WSW 8.1 mph - N/A   Clear
10:35 AM 37.4 °F 32.1 °F 32.0 °F 81% 29.77 in 10.0 mi West 6.9 mph - N/A   Clear
10:55 AM 39.2 °F 33.0 °F 32.0 °F 75% 29.77 in 10.0 mi WSW 9.2 mph - N/A   Clear
11:15 AM 41.0 °F 35.2 °F 32.0 °F 70% 29.77 in 10.0 mi West 9.2 mph - N/A   Clear
11:35 AM 42.8 °F 38.6 °F 32.0 °F 66% 29.77 in 10.0 mi West 6.9 mph - N/A   Clear
11:55 AM 44.6 °F 42.2 °F 32.0 °F 61% 29.77 in 10.0 mi West 4.6 mph - N/A   Partly Cloudy
12:15 PM 44.6 °F 42.2 °F 32.0 °F 61% 29.77 in 10.0 mi WSW 4.6 mph - N/A   Partly Cloudy
12:35 PM 46.4 °F 41.5 °F 32.0 °F 57% 29.77 in 10.0 mi West 10.4 mph - N/A   Mostly Cloudy
12:55 PM 46.4 °F 41.1 °F 32.0 °F 57% 29.77 in 10.0 mi WSW 11.5 mph - N/A   Mostly Cloudy
1:15 PM 46.4 °F 42.4 °F 32.0 °F 57% 29.76 in 10.0 mi SW 8.1 mph - N/A   Scattered Clouds
1:35 PM 46.4 °F 42.9 °F 32.0 °F 57% 29.76 in 10.0 mi SW 6.9 mph - N/A   Scattered Clouds
1:55 PM 48.2 °F - 32.0 °F 54% 29.76 in 10.0 mi WSW 8.1 mph - N/A   Mostly Cloudy
2:15 PM 48.2 °F - 33.8 °F 58% 29.75 in 10.0 mi SW 8.1 mph - N/A   Partly Cloudy
2:35 PM 50.0 °F - 35.6 °F 58% 29.75 in 10.0 mi SW 8.1 mph - N/A   Clear
2:55 PM 50.0 °F - 33.8 °F 54% 29.75 in 10.0 mi SW 9.2 mph - N/A   Partly Cloudy
3:15 PM 51.8 °F - 35.6 °F 54% 29.75 in 10.0 mi SW 9.2 mph - N/A   Partly Cloudy
3:35 PM 51.8 °F - 33.8 °F 50% 29.74 in 10.0 mi WSW 10.4 mph - N/A   Clear
3:55 PM 51.8 °F - 32.0 °F 47% 29.74 in 10.0 mi SW 15.0 mph - N/A   Clear
4:15 PM 51.8 °F - 32.0 °F 47% 29.74 in 10.0 mi WSW 10.4 mph - N/A   Clear
4:35 PM 50.0 °F - 32.0 °F 50% 29.74 in 10.0 mi West 10.4 mph - N/A   Scattered Clouds
4:55 PM 50.0 °F - 32.0 °F 50% 29.74 in 10.0 mi WSW 9.2 mph - N/A   Mostly Cloudy
5:15 PM 51.8 °F - 32.0 °F 47% 29.75 in 10.0 mi WSW 9.2 mph - N/A   Scattered Clouds
5:35 PM 51.8 °F - 35.6 °F 54% 29.75 in 10.0 mi SW 8.1 mph - N/A   Scattered Clouds
5:55 PM 51.8 °F - 28.4 °F 41% 29.76 in 10.0 mi NW 12.7 mph 18.4 mph N/A   Mostly Cloudy
6:15 PM 51.8 °F - 30.2 °F 44% 29.76 in 10.0 mi NNW 5.8 mph - N/A   Partly Cloudy
6:35 PM 48.2 °F - 32.0 °F 54% 29.76 in 10.0 mi WSW 6.9 mph - N/A   Partly Cloudy
6:55 PM 48.2 °F - 32.0 °F 54% 29.77 in 10.0 mi West 12.7 mph - N/A   Scattered Clouds
7:15 PM 46.4 °F 42.4 °F 33.8 °F 62% 29.77 in 10.0 mi West 8.1 mph - N/A   Partly Cloudy
7:35 PM 46.4 °F 43.5 °F 35.6 °F 66% 29.77 in 10.0 mi WSW 5.8 mph - N/A   Clear
7:55 PM 44.6 °F 41.4 °F 33.8 °F 66% 29.78 in 10.0 mi WNW 5.8 mph - N/A   Clear
8:15 PM 42.8 °F 37.5 °F 33.8 °F 70% 29.80 in 10.0 mi NW 9.2 mph - N/A   Clear
8:35 PM 41.0 °F 36.4 °F 32.0 °F 70% 29.81 in 10.0 mi NNW 6.9 mph - N/A   Mostly Cloudy
8:55 PM 39.2 °F 37.0 °F 32.0 °F 75% 29.82 in 10.0 mi South 3.5 mph - N/A   Overcast
9:15 PM 35.6 °F 31.7 °F 32.0 °F 87% 29.82 in 10.0 mi SSE 4.6 mph - N/A   Overcast
9:55 PM 32.0 °F 27.5 °F 30.2 °F 93% 29.83 in 10.0 mi SSE 4.6 mph - N/A   Partly Cloudy
10:15 PM 32.0 °F 28.7 °F 28.4 °F 87% 29.84 in 10.0 mi SSW 3.5 mph - N/A   Partly Cloudy
10:35 PM 32.0 °F - 28.4 °F 87% 29.84 in 10.0 mi Calm Calm - N/A   Mostly Cloudy
10:55 PM 30.2 °F - 28.4 °F 93% 29.84 in 10.0 mi Calm Calm - N/A   Mostly Cloudy
11:15 PM 32.0 °F - 28.4 °F 87% 29.86 in 10.0 mi Calm Calm - N/A   Partly Cloudy
11:35 PM 30.2 °F 26.7 °F 26.6 °F 86% 29.86 in 10.0 mi SW 3.5 mph - N/A   Clear
11:55 PM 28.4 °F 24.6 °F 26.6 °F 93% 29.86 in 10.0 mi SSW 3.5 mph - N/A   Partly Cloudy